FW8987 Weather Reports


time (UTC)temp
C
wind
direction
speed
KPH
gust
KPH
rain 1hr
cm
rain 24hr
cm
rain mn
cm
humidity
%
barometer
mb
20260831150529 20 233 6.4 16.1 0.00 0.13 0.13 73 1004.1
20260831145524 21 210 4.8 12.9 0.00 0.13 0.13 72 1004.1
20260831144520 20 196 3.2 9.7 0.00 0.13 0.13 75 1004.2
20260831143555 20 209 3.2 6.4 0.00 0.13 0.13 76 1004.1
20260831142531 19 193 3.2 9.7 0.00 0.13 0.13 76 1004.1
20260831141525 19 199 3.2 11.3 0.00 0.13 0.13 77 1004.1
20260831140520 20 204 4.8 14.5 0.00 0.13 0.13 76 1004.0
20260831135515 20 199 3.2 6.4 0.00 0.13 0.13 76 1004.1
20260831134530 20 225 4.8 12.9 0.00 0.13 0.13 75 1004.1
20260831133646 20 206 4.8 12.9 0.00 0.13 0.13 76 1004.0
20260831132522 20 200 4.8 12.9 0.00 0.13 0.13 74 1004.0
20260831131537 20 210 4.8 11.3 0.00 0.13 0.13 74 1003.8
20260831130533 21 228 6.4 16.1 0.00 0.13 0.13 70 1003.7
20260831125527 20 212 4.8 9.7 0.00 0.13 0.13 74 1003.7
20260831124522 21 202 4.8 9.7 0.00 0.13 0.13 72 1003.7
20260831123518 21 242 6.4 12.9 0.00 0.13 0.13 70 1003.7
20260831122533 21 238 6.4 12.9 0.00 0.13 0.13 70 1003.7
20260831121528 20 225 4.8 11.3 0.00 0.13 0.13 73 1003.9
20260831120543 20 217 4.8 14.5 0.00 0.13 0.13 74 1003.8
20260831115518 20 232 4.8 11.3 0.00 0.13 0.13 75 1003.8
20260831114533 19 205 3.2 12.9 0.00 0.13 0.13 80 1003.8
20260831113528 19 214 4.8 11.3 0.00 0.13 0.13 82 1003.7
20260831112543 20 237 6.4 14.5 0.00 0.15 0.13 79 1003.8
20260831111518 20 225 6.4 17.7 0.00 0.18 0.13 81 1003.6
20260831110559 19 232 4.8 11.3 0.00 0.20 0.13 83 1003.7
20260831105549 20 225 4.8 12.9 0.00 0.25 0.13 82 1003.7
20260831104544 19 209 3.2 6.4 0.00 0.25 0.13 85 1003.6
20260831103520 19 225 4.8 9.7 0.00 0.25 0.13 86 1003.6
20260831102555 18 236 4.8 6.4 0.00 0.25 0.13 88 1003.6
20260831101531 17 207 3.2 4.8 0.00 0.25 0.13 92 1003.7
20260831100530 17 223 3.2 9.7 0.00 0.25 0.13 96 1003.7
20260831095521 17 217 3.2 11.3 0.00 0.25 0.13 94 1003.7
20260831094518 17 230 4.8 11.3 0.00 0.25 0.13 91 1003.5
20260831093532 18 246 4.8 12.9 0.00 0.25 0.13 88 1003.4
20260831092527 18 211 3.2 4.8 0.00 0.25 0.13 88 1003.3
20260831091522 18 234 1.6 6.4 0.00 0.25 0.13 88 1003.4
20260831090519 17 214 3.2 4.8 0.00 0.25 0.13 91 1003.3
20260831085534 17 229 3.2 6.4 0.00 0.25 0.13 93 1003.3
20260831084550 17 209 1.6 3.2 0.00 0.25 0.13 94 1003.4
20260831083546 17 202 1.6 3.2 0.00 0.25 0.13 95 1003.3
20260831082521 17 191 0.0 1.6 0.00 0.25 0.13 94 1003.4
20260831081517 16 188 0.0 1.6 0.00 0.25 0.13 96 1003.3
20260831080533 16 176 0.0 1.6 0.00 0.25 0.13 97 1003.3
20260831075608 16 192 1.6 3.2 0.00 0.25 0.13 99 1003.3
20260831074523 15 192 0.0 1.6 0.00 0.25 0.13 99 1003.2
20260831073518 15 185 0.0 1.6 0.00 0.25 0.13 99 1003.4
20260831072533 15 197 1.6 3.2 0.00 0.25 0.13 99 1003.3
20260831071529 15 201 1.6 3.2 0.00 0.25 0.13 99 1003.2
20260831070545 15 219 0.0 3.2 0.00 0.25 0.13 99 1003.2
20260831065520 15 0.0 0.0 0.00 0.25 0.13 99 1003.1
20260831064555 14 0.0 0.0 0.00 0.25 0.13 99 1003.0
20260831063531 14 0.0 0.0 0.00 0.25 0.13 99 1003.0
20260831062545 13 0.0 0.0 0.00 0.25 0.13 99 1003.1
20260831061520 13 0.0 0.0 0.00 0.25 0.13 99 1003.1
20260831060516 13 0.0 0.0 0.00 0.25 0.13 99 1003.0
20260831055531 13 0.0 0.0 0.00 0.25 0.13 99 1003.0
20260831054547 13 0.0 0.0 0.00 0.25 0.13 99 1002.7
20260831053542 12 0.0 0.0 0.00 0.25 0.13 99 1002.8
20260831052517 12 0.0 0.0 0.03 0.25 0.13 99 1002.7
20260831051532 12 0.0 0.0 0.03 0.25 0.13 99 1002.8
20260831050528 12 0.0 0.0 0.03 0.25 0.13 99 1002.8
20260831045524 12 0.0 0.0 0.03 0.25 0.13 99 1002.8
20260831044519 12 192 0.0 1.6 0.05 0.25 0.13 99 1002.7
20260831043534 12 0.0 0.0 0.05 0.25 0.13 99 1002.7
20260831042530 12 0.0 0.0 0.03 0.23 0.10 99 1002.6
20260831041525 12 0.0 0.0 0.05 0.23 0.10 99 1002.7
20260831040522 12 215 1.6 3.2 0.05 0.23 0.10 99 1002.6
20260831035516 12 0.0 0.0 0.08 0.23 0.10 99 1002.5
20260831034532 12 0.0 0.0 0.05 0.20 0.08 99 1002.6
20260831033526 12 0.0 0.0 0.08 0.20 0.08 99 1002.5
20260831032522 12 0.0 0.0 0.08 0.20 0.08 99 1002.5
20260831031538 12 0.0 0.0 0.05 0.18 0.05 99 1002.5
20260831030533 12 0.0 0.0 0.05 0.18 0.05 99 1002.6
20260831025529 12 0.0 0.0 0.03 0.18 0.03 99 1002.8
20260831024524 12 0.0 0.0 0.03 0.18 0.03 99 1002.6
20260831023519 12 0.0 0.0 0.00 0.18 0.00 99 1002.7
20260831022535 12 0.0 0.0 0.00 0.18 0.00 99 1002.7
20260831021530 12 0.0 0.0 0.00 0.18 0.00 99 1002.9
20260831020525 12 0.0 0.0 0.00 0.18 0.00 99 1002.9
20260831015540 12 0.0 0.0 0.00 0.18 0.00 99 1002.9
20260831014516 12 0.0 0.0 0.00 0.20 0.00 99 1002.8
20260831013532 12 0.0 0.0 0.00 0.20 0.00 99 1002.8
20260831012528 12 0.0 0.0 0.00 0.20 0.00 99 1002.8
20260831011521 12 0.0 0.0 0.00 0.20 0.00 99 1002.8
20260831010518 12 0.0 0.0 0.00 0.20 0.00 99 1002.9
20260831005533 12 0.0 0.0 0.00 0.20 0.00 99 1002.9
20260831004528 12 0.0 0.0 0.00 0.23 0.00 99 1002.8
20260831003524 12 0.0 0.0 0.00 0.23 0.00 99 1002.9
20260831002519 12 0.0 0.0 0.00 0.23 0.00 99 1002.8
20260831001534 12 0.0 0.0 0.00 0.23 0.00 99 1002.8
20260831000530 12 0.0 0.0 0.00 0.23 0.00 99 1002.9
20260830235524 11 0.0 0.0 0.00 0.23 0.00 99 1002.9
20260830234520 11 0.0 0.0 0.00 0.23 0.00 99 1003.0
20260830233535 12 0.0 0.0 0.00 0.23 0.00 99 1002.8
20260830232531 12 0.0 0.0 0.00 0.23 0.00 99 1002.8
20260830231525 12 0.0 0.0 0.00 0.23 0.00 99 1002.8
20260830230521 12 0.0 0.0 0.00 0.23 0.00 99 1002.8
20260830225517 13 0.0 0.0 0.00 0.23 0.00 99 1002.8
20260830224532 13 0.0 0.0 0.00 0.23 0.00 99 1002.8
20260830223528 13 0.0 0.0 0.00 0.23 0.00 99 1002.8
20260830222523 13 0.0 0.0 0.00 0.23 0.00 99 1002.8
20260830221517 13 0.0 0.0 0.00 0.23 0.00 99 1002.9
20260830220532 13 0.0 0.0 0.00 0.23 0.00 99 1002.8
20260830215528 13 0.0 0.0 0.00 0.23 0.23 99 1002.8
20260830214523 13 0.0 0.0 0.00 0.23 0.23 99 1002.8
20260830213539 13 0.0 0.0 0.00 0.23 0.23 99 1002.8
20260830212535 13 0.0 0.0 0.00 0.23 0.23 99 1002.8
20260830211531 13 0.0 0.0 0.00 0.23 0.23 99 1002.9
20260830210525 13 170 0.0 1.6 0.00 0.23 0.23 99 1002.7
20260830205520 14 0.0 0.0 0.00 0.23 0.23 99 1002.9
20260830204516 14 0.0 0.0 0.00 0.23 0.23 99 1002.9
20260830203531 14 0.0 0.0 0.00 0.23 0.23 99 1002.8
20260830202527 15 0.0 0.0 0.00 0.23 0.23 99 1003.0
20260830201522 15 192 0.0 1.6 0.00 0.23 0.23 99 1002.9
20260830200517 15 191 0.0 1.6 0.00 0.23 0.23 98 1002.9
20260830195533 15 160 0.0 1.6 0.00 0.23 0.23 98 1002.9
20260830194528 15 194 0.0 1.6 0.00 0.23 0.23 98 1002.9
20260830193524 15 194 0.0 1.6 0.00 0.23 0.23 98 1002.8
20260830192519 15 0.0 0.0 0.00 0.23 0.23 98 1002.9
20260830191554 15 0.0 0.0 0.00 0.23 0.23 97 1002.9
20260830190551 15 0.0 0.0 0.00 0.23 0.23 97 1003.0
20260830185525 15 175 0.0 1.6 0.00 0.23 0.23 97 1003.0
20260830184601 15 0.0 0.0 0.00 0.23 0.23 96 1003.0
20260830183516 16 181 0.0 1.6 0.00 0.23 0.23 96 1002.9
20260830182551 15 177 0.0 1.6 0.00 0.23 0.23 97 1002.9
20260830181547 16 0.0 0.0 0.00 0.23 0.23 98 1002.9
20260830180522 16 0.0 0.0 0.00 0.23 0.23 97 1002.8
20260830175516 16 0.0 0.0 0.00 0.23 0.23 96 1003.0
20260830174532 16 0.0 0.0 0.00 0.23 0.23 95 1003.0
20260830173527 17 0.0 0.0 0.00 0.23 0.23 93 1002.9
20260830172522 17 0.0 0.0 0.00 0.23 0.23 92 1002.8
20260830171518 17 0.0 0.0 0.00 0.23 0.23 91 1002.9
20260830170534 17 0.0 0.0 0.00 0.23 0.23 90 1002.8
20260830165609 17 0.0 0.0 0.00 0.23 0.23 89 1002.6
20260830164523 17 0.0 0.0 0.00 0.23 0.23 87 1002.8
20260830163539 17 0.0 0.0 0.00 0.23 0.23 86 1002.8
20260830162539 18 0.0 0.0 0.00 0.23 0.23 86 1002.9
20260830161529 18 178 0.0 1.6 0.00 0.23 0.23 86 1002.8
20260830160524 17 0.0 0.0 0.00 0.23 0.23 86 1003.0
20260830155540 17 213 1.6 4.8 0.00 0.23 0.23 86 1003.0
20260830154535 18 193 0.0 1.6 0.00 0.23 0.23 84 1002.9
20260830153530 18 195 0.0 3.2 0.00 0.23 0.23 84 1002.9
20260830152526 18 193 0.0 3.2 0.00 0.23 0.23 81 1003.0
20260830151541 18 209 1.6 4.8 0.00 0.23 0.23 80 1003.0